Flag for Germany Weather past 2 weeks in Burgdorf, Lower Saxony, Germany

Now
34 °F

Chilly.


Feels Like: 28 °F
Forecast: 29 / 34 °F
Wind: 7 mph from Northwest

Location: Celle Airport

Current Time: Dec 25, 2014 at 9:41:05 PM

Latest Report: Dec 25, 2014 at 8:20 PM


Visibility: N/A

Pressure: 30.21 "Hg

Humidity: 100%

Dew point: 34 °F

Location of BurgdorfLocation

Historic Weather in Burgdorf — Graph

°F

Burgdorf temperature yesterday

Maximum temperature yesterday: 50 °F (at 12:20 AM)
Minimum temperature yesterday: 39 °F (at 11:20 PM)
Average temperature yesterday: 46 °F

Past Weeks' High & Low Weather Summary

 TemperatureHumidityPressure
High54 °F (Dec 18, 3:20 PM)100% (Dec 13, 10:20 PM)30.27 "Hg (Dec 13, 10:20 PM)
Low32 °F (Dec 15, 12:20 AM)66% (Dec 25, 3:20 PM)29.33 "Hg (Dec 12, 1:20 PM)
Average43 °F88%29.83 "Hg
* Reported Dec 10 8:20 PM — Dec 25 8:20 PM, Burgdorf, Weather by CustomWeather, © 2014

Note: Actual official high and low records may vary slightly from our data, if they occured in-between our weather recording intervals... More about our weather records

Advertising

Burgdorf weather history for previous 24 hours

 ConditionsComfort  
Time TempWeatherWind HumidityBarometerVisibility
8:20 PM
Dec 25
34 °FChilly.7 mph100%30.21 "HgN/A
7:20 PM36 °FChilly.10 mph93%30.15 "Hg3 mi
6:20 PM37 °FChilly.16 mph87%30.12 "HgN/A
5:20 PM41 °FQuite cool.13 mph76%30.07 "HgN/A
4:20 PM41 °FQuite cool.13 mph70%30.04 "HgN/A
3:20 PM43 °FQuite cool.14 mph66%30.04 "HgN/A
2:20 PM43 °FQuite cool.15 mph71%30.01 "HgN/A
1:20 PM43 °FQuite cool.14 mph76%30.01 "HgN/A
12:20 PM43 °FQuite cool.13 mph76%30.01 "HgN/A
11:20 AM41 °FQuite cool.12 mph87%30.01 "HgN/A
10:20 AM41 °FQuite cool.14 mph87%30.01 "Hg2 mi
9:20 AM41 °FQuite cool.18 mph87%29.98 "HgN/A
8:20 AM41 °FQuite cool.21 mph81%29.98 "HgN/A
7:20 AM41 °FQuite cool.15 mph81%29.95 "HgN/A
6:20 AM41 °FQuite cool.18 mph81%29.95 "HgN/A
5:20 AM41 °FQuite cool.16 mph81%29.98 "HgN/A
4:20 AM41 °FQuite cool.12 mph81%29.98 "HgN/A
3:20 AM39 °FChilly.10 mph87%29.98 "HgN/A
2:20 AM39 °FChilly.10 mph87%29.98 "HgN/A
1:20 AM39 °FChilly.12 mph87%29.98 "HgN/A
12:20 AM39 °FChilly.12 mph87%29.98 "HgN/A
11:20 PM
Dec 24
39 °FChilly.9 mph87%29.95 "HgN/A
10:20 PM41 °FQuite cool.9 mph81%29.95 "HgN/A
9:20 PM41 °FQuite cool.7 mph87%29.95 "HgN/A
Weather by CustomWeather, © 2014

See weather overviewHow to use our weather pages